Temperature
15 13 13 13 13 14 14 14 13 12 13 13 12 12 12 13 13 14 14 15 15 15 16 16 17 17 17 17 16 15 15 14 13 13 12 11 11 11 10 10 9 9 9 8
13 13 13 13 13 13 13 13 12 12 13 12 11 11 12 13 13 13 14 14 15 16 16 16 16 16 16 16 15 15 14 13 13 12 12 11 11 10 10 10 9 9 9 9
14 14 15 14 14 14 14 13 13 13 12 12 12 13 14 14 14 14 14 14 15 15 15 15 15 15 15 15 14 14 13 13 12 12 11 11 11 10 10 10 10 10 9 9
13 13 14 15 15 14 13 14 13 13 12 11 12 12 13 13 13 13 14 14 14 14 14 14 14 14 14 14 14 13 13 13 12 12 11 11 11 11 11 10 10 9 9 9
14 15 15 15 15 14 14 13 13 12 11 11 11 11 11 12 13 13 13 14 14 14 14 14 13 13 13 13 13 13 12 12 12 11 11 11 10 10 10 10 10 9 9 9
13 14 15 15 14 14 13 12 11 9 9 12 12 12 12 11 12 13 13 14 14 14 13 13 13 13 12 12 12 12 12 12 11 11 10 10 10 10 10 9 9 9 9 8
14 14 14 14 14 14 13 12 11 13 11 12 11 11 11 12 11 11 12 13 13 13 13 12 12 12 12 12 12 11 11 11 11 10 10 10 9 9 9 8 8 8 8 8
14 13 14 14 14 14 13 12 12 13 12 10 10 11 11 11 11 11 12 13 13 12 12 12 11 11 11 11 11 11 10 10 10 10 9 9 8 8 8 8 7 7 7 7
13 13 14 13 13 13 12 11 11 10 10 10 10 10 10 11 11 11 11 12 12 12 11 11 11 10 10 10 10 10 9 9 9 9 8 8 8 7 7 7 7 6 6 6
13 14 14 13 13 12 12 9 9 10 11 11 10 10 11 12 11 10 10 11 11 11 11 11 10 10 10 9 9 9 9 8 8 7 7 7 7 6 6 6 6 6 5 5
13 13 13 13 12 13 11 11 9 8 9 10 10 11 11 11 10 9 9 10 10 10 10 10 10 9 9 9 8 8 8 7 7 7 6 6 6 6 5 5 5 5 5 5
11 10 11 12 12 12 11 11 9 11 10 8 8 10 10 9 9 9 9 9 10 10 9 9 9 9 8 8 8 7 7 6 6 6 5 5 5 5 5 5 5 4 4 4
10 10 11 12 12 11 11 10 9 9 8 6 8 10 9 8 8 9 9 9 9 9 9 8 8 8 7 7 6 6 6 5 5 5 5 5 4 4 4 4 4 3 3 3
11 10 11 12 12 11 12 11 9 9 8 7 7 9 9 8 8 8 8 8 8 8 8 7 7 7 6 6 5 5 5 5 4 4 4 4 4 3 3 3 3 2 2 2
10 10 10 10 10 10 10 10 9 8 8 9 9 8 9 8 7 8 8 8 7 7 7 6 6 5 5 5 4 4 4 4 3 3 3 3 3 2 2 2 2 1 1 1
8 10 10 10 10 9 8 8 8 8 8 7 8 8 8 7 7 7 7 7 6 6 6 5 5 4 4 4 3 3 3 3 3 3 2 2 2 2 1 1 1 1 0 0
7 8 9 8 8 9 8 9 8 8 7 7 7 7 6 6 6 7 7 6 5 5 5 4 4 3 3 3 3 3 2 2 2 2 2 1 1 1 0 -0 -0 -0 -0 -1
6 7 7 7 8 9 10 9 8 8 7 6 7 6 6 6 7 7 6 5 5 4 4 3 3 3 3 3 2 2 2 2 1 1 1 0 -0 -0 -1 -1 -1 -1 -1 -2
6 7 6 6 7 7 8 8 7 7 7 6 6 6 6 6 5 6 6 5 4 4 3 3 3 2 2 2 2 1 1 1 1 0 -0 -0 -1 -1 -1 -2 -2 -2 -2 -2
4 5 5 5 6 7 9 9 8 8 7 6 6 5 5 4 3 4 5 4 4 3 3 3 2 2 2 2 1 1 1 0 -0 -1 -1 -1 -2 -2 -2 -2 -2 -3 -3 -3
5 5 5 4 5 6 7 8 8 8 7 6 6 5 5 3 3 4 4 3 3 3 3 2 2 2 2 1 0 0 -0 -0 -1 -1 -2 -2 -2 -3 -3 -3 -3 -3 -4 -4
5 4 4 4 5 6 7 7 6 6 6 6 6 5 5 4 4 3 3 3 3 2 2 2 1 1 1 1 -0 -1 -1 -1 -2 -2 -2 -2 -3 -3 -3 -4 -4 -4 -4 -4
5 6 5 5 7 6 7 7 7 7 6 6 5 4 4 3 3 3 2 2 2 2 2 1 1 1 1 0 -1 -1 -1 -2 -2 -2 -3 -3 -3 -3 -4 -4 -4 -4 -5 -5
5 4 4 4 4 5 6 6 6 6 5 5 4 4 3 3 2 2 2 2 1 1 1 1 0 -0 -0 -0 -1 -1 -2 -2 -3 -3 -3 -4 -4 -4 -4 -5 -5 -5 -5 -5
5 4 3 4 4 4 5 5 5 5 4 4 3 3 2 2 2 1 1 1 1 1 1 0 -0 -1 -1 -1 -1 -2 -2 -3 -4 -4 -4 -4 -5 -5 -5 -5 -5 -5 -6 -6
3 3 3 4 4 3 5 5 4 4 4 3 3 2 2 2 1 1 1 1 1 0 0 -0 -1 -1 -1 -2 -2 -2 -3 -4 -4 -5 -5 -5 -5 -5 -6 -6 -6 -5 -6 -6
Wind_Speed
4 3 4 7 7 4 2 4 7 8 5 4 6 8 9 6 3 5 7 8 10 10 10 10 11 9 7 5 2 3 5 5 6 4 5 5 6 5 5 11 16 18 19 20
4 4 7 4 3 3 3 4 7 7 3 2 5 7 5 1 1 2 4 7 8 10 12 13 12 11 9 6 3 1 2 4 6 5 4 3 3 4 5 8 14 19 20 21
7 6 1 3 3 3 4 6 6 6 7 3 5 6 2 2 2 2 3 4 6 7 9 11 11 11 9 8 4 2 1 3 4 4 3 2 0 2 3 6 8 13 19 20
6 6 2 3 4 5 5 5 5 3 3 5 4 3 5 2 4 2 3 5 6 7 8 8 10 10 9 8 5 4 2 1 2 4 4 6 6 7 8 6 6 8 14 18
5 3 3 4 5 6 5 0 1 1 2 2 2 1 8 2 4 4 3 2 3 5 7 8 8 8 8 7 7 5 4 2 0 2 4 5 8 9 7 5 7 8 8 13
6 3 3 4 1 2 2 4 4 5 4 2 1 2 6 3 5 3 2 2 1 4 6 7 7 8 8 8 8 7 6 5 2 1 3 5 8 9 9 10 9 8 7 8
4 3 2 2 3 2 5 5 5 5 4 4 2 3 8 5 4 4 4 3 0 3 5 6 9 9 9 10 9 8 7 6 5 3 4 6 8 9 10 11 10 9 8 7
2 5 2 2 3 3 3 6 4 2 4 6 4 5 6 4 4 0 2 3 2 3 4 5 6 7 7 8 8 8 8 7 6 6 6 6 7 6 7 9 9 9 9 10
6 5 1 2 1 6 5 3 5 5 1 4 7 7 7 1 4 4 4 3 3 3 4 4 5 6 6 7 7 7 7 7 8 7 7 7 7 7 8 9 8 9 10 10
8 3 1 1 4 5 3 8 5 4 2 4 7 6 5 3 1 1 2 2 3 3 4 5 5 5 5 6 6 7 7 7 7 8 7 7 8 8 8 8 10 10 11 10
5 3 2 1 5 5 4 4 5 4 4 4 5 7 5 4 3 2 1 2 2 3 3 4 4 5 6 7 7 7 8 8 8 9 8 9 9 9 9 9 11 11 11 11
4 5 2 5 2 1 5 6 7 4 4 5 4 7 2 2 1 2 1 1 2 3 3 3 5 6 7 8 8 8 8 8 9 9 9 9 10 10 10 11 12 11 12 12
6 5 2 5 4 1 2 4 5 5 4 6 5 7 0 2 2 2 1 1 3 3 4 4 5 7 7 8 9 9 9 9 9 9 10 10 11 11 12 12 13 12 12 13
6 5 6 8 6 5 5 5 6 6 5 6 10 10 5 3 3 3 2 2 2 3 4 5 6 7 8 8 9 9 10 9 10 10 10 11 12 12 13 13 13 13 13 13
5 4 6 7 5 4 7 9 9 11 10 11 10 9 8 4 4 4 3 2 3 5 6 7 8 8 9 9 10 10 10 10 10 11 12 13 13 13 13 13 14 13 13 14
4 4 2 4 2 3 8 12 12 11 9 10 9 9 2 1 1 1 2 2 3 6 7 8 9 10 10 10 11 11 11 11 11 12 13 14 14 14 14 14 14 14 14 14
5 7 4 4 4 6 9 10 8 6 6 7 8 6 2 1 2 3 3 2 4 6 8 9 10 10 11 11 10 11 11 12 12 13 14 14 14 15 15 15 15 15 15 14
8 7 4 2 2 8 8 1 5 5 3 4 4 3 3 2 4 5 2 1 4 7 8 9 9 10 10 10 11 11 12 12 13 14 14 14 14 15 16 15 15 15 14 14
5 8 5 4 4 9 8 3 5 6 4 4 5 3 1 2 4 3 1 1 4 6 7 8 9 10 10 12 12 12 13 13 13 15 15 15 15 16 17 17 17 16 15 16
4 4 6 5 5 8 6 1 2 4 4 4 5 4 2 1 2 4 3 5 6 7 7 8 9 10 11 13 12 13 14 14 15 16 16 16 15 16 18 18 18 16 15 16
4 3 5 6 6 9 6 2 3 4 5 5 5 4 3 4 5 5 6 7 7 8 10 10 11 11 12 13 12 14 15 16 16 16 16 16 15 15 16 17 15 15 15 16
9 7 7 6 6 9 2 5 6 5 3 4 3 3 3 4 5 6 7 8 9 10 11 11 11 13 12 12 12 15 16 16 16 16 16 16 16 15 15 16 16 15 15 16
8 8 7 9 8 2 1 3 2 4 3 2 2 2 2 3 5 7 7 8 10 11 11 11 12 14 14 12 11 15 17 16 17 17 17 17 17 15 14 15 16 15 13 13
4 3 4 4 5 3 1 2 2 2 2 1 1 1 2 4 6 8 9 9 10 11 12 12 13 15 16 14 12 13 16 15 16 18 17 16 16 16 14 12 12 13 13 13
4 5 3 4 3 0 2 2 2 2 2 1 1 1 3 5 7 8 9 11 11 12 12 11 13 15 17 16 15 14 14 14 16 17 16 16 14 15 15 13 12 13 12 14
3 5 6 5 4 5 4 3 3 2 1 1 2 3 4 5 8 9 10 11 11 12 12 13 14 15 17 16 17 15 14 13 15 16 15 14 14 13 13 14 14 17 18 23
Wind_Direction
35 60 239 230 208 214 225 247 273 272 288 312 285 290 302 322 23 27 14 9 6 358 346 4 17 29 45 54 92 165 180 177 163 167 187 205 226 224 225 225 225 221 221 219
22 274 245 219 183 191 213 261 276 290 311 298 304 298 301 333 15 7 10 9 4 358 3 9 17 27 32 34 35 78 180 180 182 185 177 190 205 223 224 228 230 227 226 224
214 243 229 162 181 204 238 222 248 280 325 0 338 332 338 6 9 14 24 15 10 13 5 2 10 18 23 21 8 9 214 192 190 175 153 140 132 294 257 235 235 232 230 229
238 262 223 213 230 190 267 239 222 269 332 311 21 308 283 291 312 318 348 6 8 10 11 10 11 13 14 6 7 14 17 157 181 171 182 201 220 240 244 239 239 236 229 231
258 238 203 223 233 184 227 48 174 235 187 323 1 185 287 307 254 252 255 315 358 13 16 15 12 10 13 11 17 18 22 26 96 192 208 221 242 252 267 269 261 254 238 233
247 259 223 216 119 147 121 72 67 58 75 341 268 178 283 256 237 245 234 231 350 17 18 16 13 17 15 14 19 20 21 12 355 268 240 237 252 264 276 278 273 270 258 245
308 302 245 146 119 47 70 65 13 356 8 267 305 219 254 269 267 225 203 201 67 25 23 14 13 13 9 9 10 11 14 2 347 319 279 259 258 262 266 273 274 275 273 263
296 301 268 194 178 163 130 130 144 241 269 294 321 249 256 291 320 342 141 123 67 27 17 13 13 12 6 5 6 5 2 350 341 329 306 287 273 267 268 270 271 272 272 269
188 258 355 58 62 134 125 134 151 135 183 281 290 293 306 15 42 57 69 62 21 0 6 9 11 11 4 360 356 350 346 339 333 327 318 309 299 286 279 280 277 275 273 275
162 229 297 350 87 36 124 142 105 124 187 281 296 285 259 261 281 11 8 355 339 350 4 8 6 357 347 343 338 340 339 329 321 322 316 309 302 294 288 288 286 282 279 277
149 167 300 7 191 187 128 128 122 123 161 181 273 276 229 214 213 207 251 308 333 356 353 353 344 335 334 337 338 335 333 329 325 322 315 310 304 300 296 290 286 284 284 281
130 125 251 269 276 162 180 178 153 166 218 188 208 268 294 170 179 157 168 329 355 360 353 342 336 339 340 336 333 329 324 321 314 311 309 306 302 302 299 294 291 288 286 283
134 116 30 348 350 41 187 178 169 139 135 173 196 256 237 83 58 55 60 346 347 352 353 343 340 337 330 327 324 321 317 312 310 310 308 307 305 302 299 296 294 292 288 286
121 137 178 212 223 195 212 203 178 157 187 220 225 247 263 301 310 308 307 303 336 341 340 336 330 324 321 318 316 314 310 308 309 309 307 305 302 299 296 295 293 291 288 288
116 188 225 245 248 220 232 233 211 206 207 220 240 240 256 252 252 255 262 295 344 341 334 328 323 319 317 316 314 311 308 308 309 308 306 303 300 297 295 293 292 291 288 287
115 171 189 278 293 277 267 254 236 229 224 233 255 266 250 190 146 261 271 293 326 324 322 320 319 318 314 311 310 309 308 308 308 305 303 302 301 299 296 295 294 293 291 290
151 144 150 265 311 339 278 253 216 204 204 195 219 226 168 168 280 274 266 284 315 316 315 315 313 308 306 306 306 307 303 305 305 301 300 300 299 298 297 297 296 294 294 292
147 144 156 234 21 248 247 292 167 169 208 192 171 163 178 234 280 277 235 279 314 312 311 309 307 307 306 304 304 302 302 302 301 300 299 298 298 298 300 299 296 295 294 293
150 143 144 164 235 276 290 240 169 174 228 196 168 180 225 330 341 317 218 341 301 299 298 296 296 297 299 300 300 302 302 302 302 301 300 300 300 302 303 302 301 299 298 296
75 113 139 158 198 244 251 173 154 122 243 206 170 187 209 77 350 277 294 314 306 304 299 298 298 300 300 300 302 304 304 304 303 303 302 302 301 301 301 301 300 299 297 296
120 142 175 183 221 260 255 236 129 179 248 172 173 187 189 202 223 260 298 302 297 297 297 298 299 299 297 299 304 303 302 301 300 301 302 302 300 298 298 298 298 298 299 299
175 171 187 166 200 251 224 136 172 200 140 146 167 189 214 241 271 290 298 298 300 301 299 299 298 298 297 297 299 299 300 301 302 303 303 303 302 301 302 299 300 299 300 301
197 191 186 192 209 252 141 164 149 138 141 163 181 228 254 273 284 292 294 295 296 294 295 295 295 298 298 294 290 294 299 303 305 305 304 305 304 302 299 299 301 304 303 301
238 161 164 232 258 233 184 133 109 108 135 158 194 258 264 270 281 289 292 293 294 294 296 298 299 300 301 300 295 291 296 302 303 304 306 306 306 305 303 300 300 301 302 302
219 166 186 244 267 195 234 207 169 127 108 95 324 274 263 271 281 282 287 289 291 295 296 296 296 297 299 302 301 299 300 303 303 304 305 306 304 303 305 303 298 299 293 294
197 181 184 225 215 192 225 210 169 164 200 241 268 286 282 268 271 280 283 285 289 294 295 297 296 297 300 303 303 303 302 302 303 307 308 307 305 304 305 305 304 299 299 303
Height
1533 1537 1539 1537 1537 1536 1538 1540 1542 1538 1530 1530 1529 1527 1521 1517 1516 1515 1515 1513 1511 1510 1509 1506 1503 1501 1500 1500 1500 1500 1502 1503 1505 1506 1508 1509 1510 1512 1513 1514 1515 1515 1516 1516
1537 1538 1532 1531 1533 1536 1538 1540 1541 1535 1530 1530 1529 1526 1520 1518 1517 1517 1516 1515 1513 1512 1510 1508 1506 1505 1503 1502 1502 1502 1502 1503 1504 1505 1507 1507 1508 1508 1509 1510 1509 1509 1509 1509
1535 1532 1528 1530 1532 1535 1536 1539 1536 1535 1532 1530 1530 1525 1520 1518 1518 1518 1517 1516 1515 1514 1512 1511 1509 1508 1506 1505 1504 1504 1504 1504 1504 1505 1505 1505 1505 1505 1504 1504 1504 1504 1503 1502
1533 1529 1528 1529 1530 1531 1537 1531 1533 1533 1538 1540 1536 1539 1525 1521 1519 1518 1517 1517 1516 1516 1515 1514 1512 1510 1509 1508 1507 1506 1505 1505 1504 1504 1504 1504 1503 1501 1501 1500 1498 1497 1496 1495
1530 1526 1526 1528 1527 1528 1530 1529 1531 1533 1537 1541 1539 1540 1531 1522 1520 1518 1517 1517 1517 1517 1516 1515 1514 1513 1512 1510 1509 1507 1506 1505 1505 1504 1503 1502 1500 1498 1497 1495 1493 1491 1490 1488
1527 1524 1524 1524 1524 1526 1527 1531 1535 1540 1543 1542 1536 1540 1533 1525 1519 1517 1516 1517 1517 1518 1517 1517 1516 1514 1513 1512 1510 1509 1507 1506 1505 1503 1502 1500 1497 1495 1492 1490 1488 1485 1483 1481
1527 1524 1522 1522 1525 1527 1529 1537 1545 1541 1546 1542 1537 1539 1533 1519 1517 1516 1515 1516 1517 1518 1518 1517 1516 1515 1513 1512 1510 1509 1507 1505 1503 1502 1499 1497 1494 1491 1488 1485 1482 1479 1476 1473
1531 1532 1523 1522 1523 1528 1530 1535 1546 1548 1550 1548 1539 1538 1526 1517 1515 1514 1515 1516 1517 1518 1517 1517 1516 1514 1513 1511 1510 1508 1506 1504 1501 1499 1496 1493 1490 1487 1483 1480 1476 1473 1469 1466
1531 1530 1523 1522 1522 1525 1532 1537 1538 1549 1550 1552 1544 1535 1523 1516 1515 1515 1515 1516 1517 1517 1517 1516 1515 1514 1512 1511 1509 1506 1504 1501 1498 1495 1492 1489 1486 1482 1478 1474 1470 1466 1462 1458
1522 1527 1524 1523 1523 1526 1528 1535 1544 1548 1548 1549 1543 1537 1529 1518 1517 1517 1516 1516 1517 1517 1516 1515 1514 1513 1511 1509 1507 1504 1501 1498 1494 1491 1487 1484 1480 1476 1472 1467 1463 1458 1454 1450
1519 1527 1527 1525 1526 1527 1532 1534 1539 1547 1548 1551 1549 1536 1519 1517 1516 1516 1516 1516 1516 1515 1514 1513 1512 1511 1510 1507 1505 1501 1498 1494 1490 1486 1482 1478 1474 1469 1465 1460 1455 1450 1445 1441
1520 1529 1532 1528 1524 1524 1526 1529 1537 1541 1544 1550 1552 1536 1515 1515 1514 1515 1515 1515 1514 1514 1513 1512 1511 1509 1507 1504 1501 1497 1493 1489 1485 1481 1476 1472 1467 1462 1457 1452 1447 1442 1436 1432
1519 1528 1535 1531 1531 1527 1526 1528 1531 1535 1542 1551 1548 1530 1516 1514 1514 1514 1514 1513 1513 1512 1511 1510 1508 1506 1503 1500 1497 1493 1489 1484 1480 1475 1470 1465 1460 1454 1449 1443 1438 1433 1427 1422
1514 1524 1530 1530 1527 1524 1524 1525 1528 1532 1539 1542 1535 1521 1515 1514 1514 1513 1513 1512 1511 1510 1509 1508 1506 1503 1500 1496 1492 1488 1483 1479 1474 1468 1463 1458 1452 1446 1440 1435 1429 1424 1418 1412
1514 1522 1523 1523 1521 1522 1522 1521 1522 1525 1524 1525 1518 1516 1511 1512 1512 1511 1511 1511 1510 1509 1507 1505 1502 1499 1495 1491 1487 1483 1478 1473 1468 1462 1456 1450 1445 1439 1432 1426 1420 1415 1409 1403
1514 1519 1521 1521 1520 1522 1521 1515 1515 1516 1516 1516 1513 1512 1509 1509 1510 1510 1509 1509 1508 1507 1505 1502 1499 1495 1491 1487 1482 1477 1472 1467 1461 1455 1449 1443 1436 1430 1424 1418 1412 1405 1399 1394
1517 1520 1524 1526 1524 1520 1518 1506 1506 1508 1507 1509 1510 1509 1508 1509 1508 1508 1507 1507 1506 1504 1502 1499 1495 1491 1487 1482 1477 1471 1466 1460 1454 1448 1442 1435 1429 1422 1415 1409 1403 1396 1390 1384
1515 1519 1525 1528 1523 1524 1505 1500 1500 1503 1504 1505 1505 1506 1506 1507 1507 1506 1505 1505 1503 1501 1498 1495 1491 1487 1482 1477 1472 1466 1460 1454 1447 1440 1434 1427 1421 1413 1407 1400 1394 1387 1381 1374
1510 1516 1526 1530 1527 1518 1504 1499 1499 1502 1503 1502 1503 1505 1505 1505 1505 1503 1503 1502 1500 1498 1495 1491 1487 1482 1477 1472 1466 1459 1453 1447 1440 1433 1426 1420 1413 1406 1399 1391 1385 1378 1372 1365
1512 1513 1523 1529 1525 1517 1500 1496 1495 1499 1502 1501 1501 1503 1504 1504 1506 1504 1501 1499 1496 1494 1491 1487 1482 1477 1472 1466 1460 1453 1446 1439 1432 1425 1419 1412 1406 1399 1391 1384 1377 1370 1364 1357
1515 1518 1521 1525 1523 1510 1497 1495 1496 1503 1499 1499 1499 1500 1501 1501 1502 1500 1497 1495 1492 1489 1486 1482 1477 1472 1466 1460 1453 1446 1439 1432 1425 1418 1411 1404 1398 1391 1383 1376 1369 1362 1355 1349
1507 1514 1518 1520 1522 1509 1494 1494 1497 1496 1496 1496 1498 1498 1499 1498 1497 1496 1493 1491 1488 1484 1480 1476 1471 1465 1460 1454 1447 1439 1432 1425 1418 1410 1402 1395 1389 1383 1376 1368 1361 1355 1348 1341
1499 1498 1501 1502 1498 1493 1491 1492 1493 1493 1495 1495 1496 1496 1496 1495 1493 1492 1489 1486 1483 1479 1475 1470 1464 1458 1452 1447 1440 1432 1424 1417 1409 1402 1394 1387 1380 1374 1368 1361 1354 1347 1341 1334
1493 1493 1495 1497 1492 1491 1491 1491 1492 1493 1493 1494 1494 1494 1493 1492 1490 1488 1485 1482 1478 1473 1469 1463 1457 1450 1444 1438 1432 1425 1418 1410 1402 1394 1386 1379 1372 1365 1359 1354 1348 1341 1334 1328
1488 1491 1493 1493 1490 1489 1490 1490 1491 1491 1492 1491 1491 1491 1490 1488 1486 1484 1480 1476 1472 1467 1462 1457 1450 1443 1436 1430 1423 1417 1410 1403 1394 1386 1379 1372 1365 1358 1351 1346 1341 1334 1328 1324
1487 1488 1490 1489 1486 1487 1487 1488 1489 1489 1489 1489 1489 1488 1487 1485 1482 1479 1475 1471 1466 1461 1455 1449 1443 1436 1429 1422 1415 1409 1402 1395 1388 1379 1372 1365 1358 1352 1345 1338 1331 1326 1322 1316